Location: Asheville, NC
(35.6000°N, 82.5500°W)
Time: 07:07:10
(UTC-05:00)

CUTE 1.7 + AOD 2 - Pass Details

Date: 11 February 2018
Orbit: 594 x 614 km, 97.6° (Epoch: 18 February)

Event Time Altitude Azimuth Distance (km) Brightness Sun altitude
Rises 18:32:11 0° 163° (SSE) 2,835 ? -5.5°
Reaches altitude 10° 18:34:21 10° 162° (SSE) 1,933 ? -6.0°
Maximum altitude 18:38:33 75° 77° (ENE) 621 ? -6.8°
Drops below altitude 10° 18:42:44 10° 352° (N) 1,936 ? -7.6°
Sets 18:44:54 0° 351° (N) 2,840 ? -8.1°
